Vorticity
4 4 4 4 4 4 4 4 5 5 6 6 6 6 6 5 6 6 6 7 8 9 10 10 10 10 10 10 9 9 9 8 8 8 7 7 7 7 7 7 7 7 7 7 7 7 6 6 6 5 5 5 5 5 5 6 6 6 6 6 6 6 7 6 6 5 5 4 4 4 4 4 4 4 3 2 1 0 -0 -0 0 1 2 2 3 3 3 3 3 4 5 5 6 7 7 8 9 9 9 9 9 10 12
4 4 4 4 4 3 3 3 4 4 5 5 6 6 5 5 5 5 6 6 7 8 9 10 11 11 11 10 10 9 9 8 8 7 7 7 7 6 6 6 6 6 7 7 7 7 7 6 6 6 6 6 6 6 6 6 6 6 6 7 7 7 6 6 6 5 5 4 4 4 4 4 4 4 3 2 1 0 0 0 1 1 2 2 3 3 3 3 3 4 4 5 6 7 8 8 9 9 9 9 9 10 12
5 5 5 5 4 4 4 3 3 4 4 5 6 6 6 6 6 6 6 6 7 7 9 10 11 11 11 11 10 10 9 8 8 8 7 7 6 6 6 6 6 6 6 7 7 7 7 7 7 6 6 6 6 6 7 6 6 6 7 7 7 6 6 6 5 5 5 5 4 4 4 4 4 4 3 2 1 1 1 1 1 2 2 2 2 2 3 3 3 4 4 5 6 7 8 8 9 9 9 9 9 10 12
6 5 5 5 5 5 5 5 4 4 4 5 5 6 6 6 6 6 6 6 6 7 8 10 11 12 12 11 11 10 9 9 8 8 7 7 7 6 6 6 6 6 7 7 7 7 7 7 7 7 7 6 6 6 6 6 6 6 6 6 6 6 6 6 5 5 5 5 5 5 5 4 4 4 3 2 2 1 1 1 2 2 3 2 2 2 2 2 3 3 4 5 6 7 8 8 9 9 9 9 9 9 11
6 6 6 6 6 6 6 6 5 5 4 4 4 5 5 5 6 6 5 5 6 6 7 9 10 11 12 12 11 11 10 9 9 8 8 7 7 7 7 7 7 7 7 7 7 7 7 7 7 7 7 7 6 6 6 6 6 6 6 6 6 6 6 5 5 5 4 4 4 4 5 4 4 3 3 2 2 1 1 2 2 2 3 3 2 2 2 2 2 3 4 5 7 8 9 8 8 9 9 9 9 9 9
6 6 6 6 6 6 6 6 6 6 5 4 4 4 4 4 5 5 5 5 5 5 6 7 8 10 11 12 11 11 10 9 9 8 8 8 7 7 7 7 7 7 7 7 7 7 7 7 7 7 7 7 6 6 6 6 6 6 6 6 6 6 6 5 5 4 4 4 4 4 4 4 4 3 3 2 2 2 1 2 2 2 2 2 2 2 2 2 3 3 4 5 7 8 9 9 9 9 9 9 9 8 7
7 6 6 6 6 6 7 7 7 6 6 5 5 4 4 4 4 4 5 5 5 5 5 6 7 8 10 10 11 11 10 9 9 8 8 8 7 7 7 7 7 7 7 7 7 7 7 7 7 7 7 7 7 7 7 7 7 7 7 7 6 6 5 5 5 4 4 4 4 4 4 3 3 3 3 2 2 2 2 2 2 2 2 2 2 2 2 2 3 4 5 6 7 8 9 8 8 9 10 10 9 7 7
7 7 7 6 6 6 7 7 7 7 7 7 6 6 5 5 5 5 5 5 5 5 5 6 6 7 8 9 10 10 10 9 8 8 7 7 7 7 7 7 7 7 7 7 7 6 6 6 6 6 6 7 7 7 7 7 7 7 7 7 6 6 5 5 4 4 3 3 3 3 3 3 3 3 2 2 2 2 2 2 2 2 2 2 2 2 2 3 4 5 6 6 7 8 9 8 8 9 10 10 9 7 6
7 7 7 6 6 6 6 6 7 7 7 7 7 7 6 6 5 5 5 5 5 5 5 5 6 6 7 8 9 9 9 9 8 8 7 7 7 7 7 7 7 7 7 7 7 7 7 7 7 7 6 7 7 7 7 7 7 7 7 6 6 6 5 5 4 4 3 3 3 3 3 3 2 2 2 2 2 2 2 2 2 2 2 2 2 2 2 3 5 6 6 7 8 8 8 8 8 8 9 10 9 8 6
6 6 6 6 6 6 6 6 6 6 7 7 7 7 7 7 6 6 5 5 5 5 5 5 6 6 7 7 8 9 9 9 8 8 7 7 6 6 6 6 7 7 7 7 7 7 7 7 7 7 7 7 7 7 7 7 7 6 6 6 6 5 5 4 4 3 3 3 3 2 2 2 2 2 2 2 2 2 2 2 2 2 2 2 2 2 3 4 5 6 7 7 8 8 9 8 8 8 9 10 10 9 7
6 6 6 6 6 6 6 6 6 6 6 6 6 6 7 7 6 6 6 5 5 5 5 5 5 6 6 7 8 8 9 9 9 8 8 7 7 6 6 6 6 6 6 7 7 7 7 7 7 7 7 7 7 7 7 7 7 6 6 6 5 5 4 4 4 3 3 3 2 2 2 2 2 2 2 2 2 2 2 2 2 2 2 2 2 3 4 5 6 7 7 7 8 8 8 8 8 8 8 10 10 10 8
6 6 6 6 6 6 5 5 5 5 5 5 6 6 6 6 6 6 6 6 5 5 5 5 5 5 6 6 7 8 9 9 9 9 9 8 8 7 7 6 6 6 6 6 6 6 6 6 6 7 7 7 7 7 7 7 7 7 6 6 5 5 4 4 4 3 3 3 2 2 2 2 2 2 2 2 2 2 2 2 2 2 2 3 3 4 5 6 7 7 8 7 8 8 8 8 8 8 8 9 10 10 10
6 6 6 6 6 6 6 6 5 5 5 5 6 6 6 6 6 6 6 6 6 6 6 5 5 5 6 6 7 7 8 9 9 9 9 9 9 8 8 7 7 7 6 6 6 6 6 6 6 6 6 7 7 7 7 7 7 7 6 6 6 5 5 4 4 3 3 3 2 2 2 2 2 2 2 2 2 2 2 3 3 3 3 3 4 5 6 7 8 8 8 8 8 8 8 8 8 8 8 9 10 11 11
6 6 6 7 7 7 7 6 6 6 6 6 6 6 6 6 6 7 7 7 7 6 6 6 6 6 6 6 6 7 7 8 9 10 10 10 10 9 9 8 8 8 7 7 6 6 6 6 6 6 6 6 6 7 7 7 7 7 7 6 6 5 5 4 4 4 3 3 2 2 2 2 2 2 2 3 3 3 3 3 3 3 3 4 5 6 7 8 8 8 8 8 8 8 8 8 8 8 8 9 10 10 11
6 6 7 7 7 7 7 7 7 6 6 6 6 6 6 6 6 7 7 7 7 7 7 7 6 6 6 6 6 6 7 7 8 9 10 10 10 10 10 9 9 8 8 7 7 7 6 6 6 6 6 6 6 6 6 6 6 6 6 6 6 6 5 5 4 4 3 3 3 2 2 2 3 3 3 3 3 3 3 3 3 4 5 6 7 7 8 9 9 8 8 8 8 8 8 8 8 7 8 8 9 10 11
6 6 7 7 7 7 7 7 7 7 6 6 6 6 6 6 6 7 7 7 8 8 8 7 7 7 6 6 6 6 6 7 7 8 9 10 10 10 11 10 10 9 9 8 8 7 7 6 6 6 6 6 6 6 6 6 6 6 6 6 6 5 5 5 4 4 3 3 3 3 3 3 3 3 3 3 3 3 4 4 5 6 7 7 8 8 9 9 9 8 8 8 8 8 8 8 8 7 8 8 9 10 11
6 6 6 7 7 7 7 7 7 7 6 6 6 6 6 6 6 7 7 7 8 8 8 8 7 7 7 6 6 6 6 6 7 7 8 8 9 10 11 11 11 10 10 9 9 8 8 7 7 7 6 6 6 6 6 6 6 6 6 6 5 5 5 5 4 4 4 4 4 4 3 4 4 4 4 4 4 5 6 6 7 8 9 9 9 9 9 9 8 8 8 8 8 8 8 8 8 8 8 8 9 10 10
6 6 6 7 7 7 7 7 7 7 7 6 6 6 6 6 6 6 7 7 7 8 8 8 8 7 7 7 7 6 6 6 6 7 7 8 8 9 10 10 11 11 11 11 10 10 10 9 9 8 8 7 7 6 6 6 6 6 6 6 6 5 5 5 5 5 5 5 5 5 5 5 5 5 6 6 7 8 9 9 10 10 9 9 9 8 8 8 8 8 8 8 8 8 8 8 8 8 8 8 9 9 10
6 6 6 6 7 7 7 7 7 6 6 6 6 6 5 5 5 6 6 7 7 7 7 7 7 7 7 7 7 7 7 7 7 7 7 7 7 8 8 9 10 10 11 11 11 11 11 11 11 10 10 9 9 8 8 8 7 7 7 7 6 6 6 6 6 6 6 6 6 7 7 7 8 9 9 10 10 11 11 10 10 9 8 8 7 7 7 7 8 8 8 8 8 8 8 8 8 7 7 8 8 9 9
6 6 6 6 6 6 6 6 6 6 6 6 6 6 5 5 5 5 6 6 6 7 7 7 7 7 7 7 7 7 7 7 7 7 7 7 7 7 7 8 8 9 9 10 10 11 12 12 12 12 12 12 11 11 11 10 10 10 9 9 9 9 9 8 9 9 9 9 10 10 11 11 12 12 12 12 12 11 10 9 8 8 7 7 6 6 7 7 7 8 8 8 8 8 8 8 7 7 7 7 8 8 8
6 6 6 6 6 6 6 6 6 6 6 6 6 6 6 5 5 5 5 6 6 6 6 6 6 6 7 7 7 7 7 7 7 7 7 7 7 7 7 7 7 7 8 8 9 9 10 11 11 12 12 13 13 13 13 12 12 12 12 12 12 12 12 12 12 12 12 12 13 13 13 13 13 12 12 11 10 9 8 7 7 6 6 6 6 6 7 7 7 8 8 8 8 8 8 8 7 7 6 6 6 7 7
6 6 6 6 6 6 6 6 6 6 6 6 6 6 5 5 5 5 5 6 6 6 6 6 6 6 6 6 6 7 7 7 7 7 7 7 7 7 7 7 7 7 7 7 8 8 8 9 9 10 11 11 12 12 12 13 13 13 13 13 13 13 13 13 13 13 13 13 12 12 12 11 11 10 9 8 7 6 6 5 5 5 6 6 6 6 7 7 8 8 9 9 9 9 8 8 8 7 6 6 6 6 6
6 6 6 6 6 6 6 6 6 6 5 5 6 6 5 5 5 5 6 6 6 5 5 5 5 5 5 5 5 6 6 6 6 7 7 7 7 7 7 6 6 7 7 7 7 7 7 8 8 8 9 9 10 10 11 11 11 11 11 11 11 11 11 11 11 11 10 10 10 9 9 8 7 6 6 5 4 4 4 4 4 5 5 6 6 7 7 7 8 8 9 9 9 9 9 8 8 7 7 6 5 5 5
6 6 6 6 6 6 6 5 5 5 5 5 6 6 5 5 5 5 6 6 6 6 5 5 5 5 5 5 5 5 5 6 6 6 6 7 7 7 7 6 6 6 6 6 6 6 6 6 7 7 7 7 8 8 8 8 8 8 8 8 8 8 8 8 8 8 7 7 7 6 6 5 5 4 4 4 4 4 4 4 4 5 5 6 7 7 8 8 9 9 10 10 10 10 10 9 8 8 7 7 6 5 4
6 6 6 6 6 6 5 5 5 5 5 5 6 6 5 5 5 5 5 5 5 6 5 5 5 5 5 5 5 5 5 6 6 6 6 6 6 6 6 6 6 6 6 6 6 5 5 5 5 5 5 6 6 6 6 6 6 6 6 6 6 6 6 5 5 5 5 5 5 4 4 4 4 4 4 4 4 4 4 5 5 6 6 7 7 8 9 9 9 10 10 10 10 10 10 10 9 8 8 7 7 6 5
6 6 6 6 6 6 5 5 5 5 5 5 6 6 5 5 5 5 5 5 5 5 5 5 5 5 6 6 6 6 6 6 6 6 7 7 6 6 6 6 7 7 7 6 6 6 5 5 4 4 4 4 4 4 4 4 4 4 4 4 4 4 4 4 4 4 4 4 4 4 4 4 4 4 4 4 5 5 6 6 7 7 7 8 8 9 9 10 10 10 10 10 10 10 10 10 10 9 8 8 7 7 6
6 6 6 6 6 6 6 6 5 5 5 5 6 6 6 5 5 5 5 5 5 5 5 5 5 5 6 6 6 6 7 7 7 8 8 7 7 7 7 7 7 8 8 7 7 7 6 6 5 5 5 4 4 4 4 4 4 4 5 5 5 5 5 5 5 5 5 5 5 5 5 5 5 5 5 5 6 6 7 7 8 8 8 9 9 9 10 10 10 10 10 10 10 10 10 10 10 10 9 9 8 8 8
6 6 6 6 6 6 6 6 6 5 5 5 5 6 6 5 5 5 5 5 5 5 5 4 5 5 5 6 6 6 7 8 9 9 9 9 8 8 7 7 8 8 8 8 8 8 8 8 7 7 7 6 6 6 6 6 6 6 6 6 5 5 5 5 5 5 5 5 5 5 5 6 6 6 6 7 7 7 8 8 8 9 9 9 9 9 9 10 10 10 10 10 10 10 10 10 10 10 9 9 9 9 9
6 6 7 6 6 6 6 6 6 6 5 5 5 5 6 6 5 5 5 5 5 5 5 5 5 5 5 5 6 6 7 8 9 10 10 10 9 9 8 8 8 8 8 8 9 9 9 9 9 9 9 9 8 8 8 8 7 7 7 7 6 6 6 6 6 6 6 6 6 6 6 6 7 7 8 8 8 8 9 9 9 9 9 9 9 9 9 9 9 9 9 10 10 10 10 10 10 10 9 9 9 9 9
7 7 7 6 6 6 6 6 6 6 5 6 5 5 5 6 6 5 5 5 5 5 5 5 5 5 5 5 5 6 6 7 8 9 9 9 9 8 7 7 7 7 7 7 8 8 8 9 9 9 9 9 9 9 9 8 8 8 8 7 7 7 7 6 6 6 6 7 7 7 7 8 8 9 9 9 9 9 10 10 10 10 10 9 9 9 9 9 9 9 9 9 9 10 10 10 10 10 9 9 8 8 8
7 7 7 7 6 6 6 6 6 6 5 6 6 6 6 6 6 6 6 5 5 5 6 5 5 5 5 5 5 5 6 6 7 7 7 7 7 6 6 5 5 5 5 6 6 6 7 7 7 8 8 8 8 8 8 8 8 7 7 7 7 7 7 7 7 7 8 8 8 8 9 9 10 10 10 10 10 10 10 10 10 10 10 9 9 9 8 8 8 8 8 9 9 10 10 10 10 10 10 10 9 8 7
7 7 7 7 7 6 6 6 6 6 6 6 6 6 6 6 6 6 6 6 6 6 6 6 6 6 5 5 5 5 5 6 6 6 6 5 5 5 5 4 4 4 4 4 4 4 5 5 5 6 6 6 6 6 7 7 7 7 7 7 7 7 7 8 8 8 9 9 9 10 10 10 10 10 10 10 10 10 10 10 10 9 9 9 9 8 8 8 8 8 8 8 9 9 10 10 10 10 10 10 10 9 8
8 8 8 7 7 7 6 6 6 6 6 6 7 7 7 7 7 6 6 6 6 6 6 6 6 6 6 6 5 5 5 5 5 5 5 5 5 4 4 4 3 3 3 3 3 3 4 4 4 4 4 5 5 5 6 6 6 6 6 7 7 7 8 8 9 9 9 9 10 10 10 10 10 10 10 10 10 10 10 10 9 9 9 9 8 8 8 8 8 8 8 8 8 9 9 9 10 10 10 10 10 10 9
8 8 8 8 7 7 6 6 6 6 6 6 7 7 8 7 7 7 6 6 6 6 6 6 6 6 6 6 6 5 5 5 6 6 5 5 5 5 4 4 4 4 4 4 4 4 4 4 4 4 4 4 5 5 6 6 6 6 7 7 7 7 8 8 8 9 9 9 8 8 8 8 8 8 8 9 9 9 9 9 9 9 9 9 8 8 8 8 8 8 8 8 8 8 8 9 9 9 9 9 10 10 10
8 8 8 8 7 7 6 6 6 6 6 6 7 8 8 8 8 7 6 6 6 6 6 6 6 6 6 6 6 6 6 6 6 6 6 6 6 6 6 6 6 6 6 6 6 6 6 5 5 5 5 5 5 6 6 6 6 7 7 7 7 7 7 7 7 7 7 6 6 6 6 6 6 6 7 7 8 8 8 9 9 9 9 9 9 9 9 8 8 8 8 8 8 8 8 8 8 8 8 9 9 9 9
8 8 8 8 7 7 6 6 6 5 5 6 6 7 8 8 8 8 7 6 6 6 6 6 6 6 6 7 7 7 7 7 7 7 7 7 7 7 7 7 7 7 8 7 7 7 7 7 6 6 6 6 6 6 6 6 6 6 7 6 6 6 6 6 5 5 4 4 4 3 3 3 4 4 5 5 6 7 7 8 8 8 9 9 9 9 9 9 9 9 8 8 8 8 8 8 8 8 8 9 9 9 10
7 8 8 7 7 7 6 6 5 5 5 5 6 7 8 8 8 8 7 7 7 7 7 7 7 8 8 8 8 8 8 8 8 8 9 9 8 8 8 8 8 8 8 8 8 8 8 7 7 7 6 6 6 6 6 6 6 6 6 5 5 5 4 4 3 3 2 2 2 2 2 2 2 3 4 4 5 6 6 7 7 7 8 8 9 9 9 9 9 9 9 8 8 8 8 8 8 8 9 9 9 9 10
7 7 7 7 7 6 6 5 5 5 4 5 5 6 7 8 8 8 8 7 7 7 7 8 8 8 9 9 8 8 8 8 8 8 9 9 9 9 8 8 8 8 8 8 8 8 7 7 7 6 6 6 6 6 6 5 5 5 5 4 4 3 3 2 2 1 1 1 1 2 2 3 3 4 4 4 5 5 6 6 6 7 7 8 8 9 9 10 10 10 9 9 9 8 8 8 8 8 9 9 9 9 10
7 7 7 7 6 6 5 5 4 4 4 4 4 5 6 7 7 8 8 7 7 7 7 7 8 8 9 9 9 8 8 8 8 8 8 8 8 8 8 8 7 7 7 7 7 7 7 6 6 6 5 5 5 5 5 4 4 4 3 3 3 3 2 2 2 2 2 3 3 4 4 5 5 6 6 6 6 6 6 7 7 7 7 8 8 9 9 9 10 10 10 10 9 9 9 8 8 8 8 8 8 8 8
7 7 6 6 6 5 5 4 4 4 4 4 4 4 5 6 6 7 7 7 7 7 7 7 7 7 8 8 8 8 8 8 8 8 8 8 8 8 8 7 7 7 7 7 7 6 6 6 5 5 5 5 5 5 4 4 4 4 3 3 3 3 4 4 4 4 5 6 6 7 7 8 8 8 8 8 8 8 8 8 8 8 8 8 9 9 9 9 9 10 10 10 10 9 9 9 8 8 8 7 7 7 7
6 6 6 6 5 5 4 4 4 4 4 4 4 4 5 5 6 6 7 6 6 6 6 7 7 7 7 7 8 8 7 7 7 7 7 7 7 7 7 7 8 7 7 7 7 7 7 6 6 6 6 6 6 5 5 5 5 5 5 5 6 6 6 7 7 7 8 8 9 9 9 10 10 10 10 10 10 10 10 10 10 10 10 9 9 9 9 9 9 9 9 9 9 9 9 9 9 8 8 7 7 6 6
6 6 5 5 5 4 4 4 4 4 4 4 4 4 4 4 5 6 6 6 5 5 5 5 6 7 7 7 7 7 6 7 7 7 7 7 7 7 7 7 8 8 8 8 8 8 8 8 7 7 7 7 7 7 7 7 7 8 8 8 8 8 9 9 9 9 10 10 10 10 10 11 11 11 11 11 11 10 10 10 10 10 10 10 10 10 10 10 10 10 9 9 9 9 9 9 9 8 8 7 7 6 6
5 5 5 5 4 4 4 4 4 4 3 3 3 3 4 4 4 4 5 5 5 4 4 4 5 5 6 6 6 6 6 6 6 6 6 6 6 7 7 7 7 8 8 8 8 9 9 9 9 9 9 9 9 9 9 9 9 9 9 10 10 10 10 10 10 10 10 10 10 11 11 11 11 11 11 10 10 10 10 10 10 10 10 10 10 10 10 10 10 10 10 10 10 9 9 9 9 8 8 8 7 7 7
5 5 4 4 4 4 3 3 3 3 3 3 3 3 3 3 4 4 4 4 4 4 3 3 4 4 5 5 5 5 5 5 5 6 6 6 6 6 6 7 7 7 8 8 8 9 9 9 10 10 10 10 10 10 10 10 10 10 10 10 10 9 9 9 10 10 10 10 10 10 10 10 10 10 10 10 10 10 9 9 9 9 9 9 9 9 10 10 10 10 10 10 10 10 10 10 10 9 9 9 9 8 8
5 5 4 4 4 3 3 3 3 3 3 3 3 3 3 3 3 3 3 3 3 3 3 3 3 3 4 4 4 4 5 5 5 5 5 5 5 5 5 6 6 7 7 7 8 8 9 9 9 9 9 9 9 9 9 9 9 9 9 8 8 8 9 9 9 9 9 9 9 9 9 9 9 9 9 9 9 9 8 8 8 8 8 8 8 9 9 9 10 10 10 11 11 11 11 11 11 11 11 11 11 10 10
5 4 4 4 3 3 3 3 3 3 3 3 3 3 3 3 3 3 3 3 3 3 3 3 3 3 3 3 3 4 4 4 4 4 4 4 5 5 5 5 5 6 6 6 7 7 7 8 8 8 8 8 8 8 8 8 8 8 7 7 7 8 8 8 8 8 8 8 8 8 8 9 9 9 9 9 9 8 8 8 7 7 7 7 8 8 8 9 9 10 10 10 11 11 11 11 12 12 12 12 12 12 12
5 5 4 4 4 3 3 3 3 3 3 3 3 3 3 3 3 3 3 3 3 3 3 3 3 2 2 2 3 3 3 3 3 4 4 4 4 5 5 5 5 5 5 6 6 6 6 7 7 7 7 7 7 7 7 7 7 7 7 7 7 7 7 7 7 7 7 7 7 8 8 8 8 8 8 8 8 8 8 7 7 7 7 7 7 8 8 8 8 9 9 9 10 10 10 10 10 11 11 11 11 11 11
5 5 4 4 4 4 3 3 3 3 3 3 3 3 3 3 3 3 3 3 3 3 3 3 3 2 2 2 2 2 2 3 3 4 4 4 4 5 5 5 5 5 5 5 6 6 6 6 6 6 6 6 6 6 6 6 6 6 6 6 6 6 6 6 7 7 7 7 7 7 7 7 8 8 8 8 8 8 8 7 7 7 7 7 7 7 7 7 8 8 8 8 8 8 9 9 9 9 10 10 10 10 10
5 5 5 4 4 4 4 3 3 3 3 3 3 3 3 3 3 3 3 3 3 3 3 3 2 2 2 2 2 2 2 3 3 3 4 4 4 5 5 5 5 5 5 5 5 6 6 6 6 6 5 5 5 5 6 6 6 6 6 6 6 6 6 6 6 6 6 6 6 6 6 7 7 7 8 8 8 8 7 7 7 6 6 6 6 6 7 7 7 7 7 7 7 7 7 7 7 8 8 8 9 9 9
5 5 4 4 4 4 4 4 4 3 3 3 3 3 3 3 3 3 3 3 3 3 3 3 3 3 2 2 2 2 2 2 3 3 4 4 4 5 6 6 6 6 5 5 5 5 6 6 6 6 6 5 5 5 6 6 6 6 6 6 6 5 5 5 6 6 6 6 6 6 6 6 7 7 7 8 8 7 7 6 6 6 6 6 6 6 6 6 6 6 6 6 6 6 6 6 6 6 6 7 7 7 7
4 4 4 4 4 4 4 4 4 4 3 3 3 3 3 3 3 3 3 3 3 3 3 3 3 3 3 3 2 2 2 2 3 3 3 4 5 5 5 5 6 6 5 5 5 5 6 6 6 6 6 6 5 6 6 6 6 6 6 5 5 5 5 5 5 5 5 5 5 5 6 6 6 6 7 7 7 7 7 6 6 5 5 6 6 6 6 6 6 6 6 5 5 5 5 5 5 5 5 5 5 5 5
4 4 4 4 4 4 4 4 4 4 3 3 3 3 3 3 3 3 3 3 3 3 3 2 2 2 3 3 3 3 3 2 3 3 3 3 4 5 5 4 4 4 4 4 5 6 6 6 6 6 6 6 6 6 6 6 6 6 5 5 5 5 5 5 5 5 5 5 5 5 5 5 5 6 6 7 7 7 7 6 5 5 5 5 6 6 6 6 6 6 5 5 5 5 5 5 5 5 5 5 5 5 5
3 3 3 3 3 3 3 3 3 3 3 3 3 3 3 3 3 3 3 3 3 3 3 3 2 2 3 4 4 3 3 3 3 4 4 3 4 5 6 6 5 4 3 3 4 5 6 6 7 6 6 6 6 6 6 6 6 5 5 5 5 5 5 5 5 5 5 5 5 5 5 5 5 5 6 7 7 7 7 6 6 5 5 5 5 6 6 6 6 6 5 5 5 5 5 6 6 6 6 6 6 6 6
3 3 3 3 3 3 3 3 3 3 3 3 3 3 3 3 3 3 3 3 3 3 3 3 3 3 3 3 4 4 3 3 3 4 5 5 4 4 4 6 5 3 2 2 2 4 6 6 6 6 6 6 6 5 5 5 5 5 5 5 5 4 5 5 5 5 5 5 5 5 4 4 5 5 6 6 7 7 7 7 6 5 5 5 5 5 6 6 6 6 6 6 6 6 6 6 6 7 7 7 7 7 7
4 4 3 3 3 3 3 3 3 3 3 3 3 3 3 3 3 3 3 3 3 3 3 3 4 4 3 3 3 4 4 4 4 4 4 6 7 6 4 3 3 2 1 3 4 4 4 5 6 6 6 5 5 5 6 6 5 5 5 5 4 4 4 5 5 5 5 5 5 5 4 4 4 5 5 6 6 7 7 7 6 5 5 5 5 5 6 6 6 6 6 6 6 6 6 7 7 7 8 8 8 8 9
5 5 4 4 4 3 3 3 3 3 2 2 3 3 3 3 3 3 3 3 3 3 4 3 4 4 4 3 3 3 4 4 5 5 5 6 7 8 6 3 1 1 -0 2 4 5 4 4 5 5 5 5 5 5 6 6 5 5 5 4 4 4 4 4 5 5 5 5 5 5 5 4 4 4 5 5 6 7 7 7 6 6 5 5 5 5 5 6 6 6 6 6 6 6 7 7 8 8 8 9 9 9 9
6 6 6 5 5 5 4 4 3 3 2 2 2 3 3 3 3 3 3 4 4 4 4 4 3 3 4 4 3 3 3 4 5 6 7 6 6 7 8 6 4 2 0 -0 0 2 4 5 5 5 5 5 6 5 5 5 5 5 4 4 4 4 4 4 4 5 5 5 5 5 5 5 5 5 5 5 6 6 7 7 6 5 5 5 5 5 5 5 6 6 6 6 6 6 7 7 8 8 9 9 9 9 9
6 6 6 6 6 6 6 5 4 4 3 3 3 3 3 3 3 3 3 4 4 4 4 4 4 3 3 4 4 4 4 4 5 6 7 7 7 7 7 6 4 3 3 2 2 2 2 5 6 6 2 4 6 6 5 5 5 5 5 4 4 3 4 4 4 5 5 5 5 5 5 5 5 5 4 5 5 6 6 6 6 5 5 5 5 5 5 5 5 5 5 6 6 6 7 8 8 8 8 8 8 7 7
5 5 6 6 6 7 7 6 6 5 4 3 3 4 4 4 4 4 4 4 4 3 4 4 4 4 3 4 4 4 5 5 5 5 5 8 8 8 5 4 3 3 3 4 5 5 4 5 5 5 4 4 4 5 6 6 5 5 5 4 4 4 4 4 4 5 5 5 5 5 5 5 5 4 4 5 5 5 6 5 5 5 5 5 5 5 5 5 5 5 5 5 6 7 7 8 8 8 8 7 6 6 5
4 4 4 5 6 6 7 6 6 5 5 4 5 5 5 4 4 4 4 4 4 4 4 4 4 4 4 4 4 4 4 4 5 5 5 6 7 7 5 4 3 3 3 4 5 6 7 7 5 5 6 4 3 3 5 6 6 6 5 4 4 4 4 5 5 5 5 5 5 5 5 5 4 4 4 5 5 5 5 5 5 5 4 4 5 5 5 5 5 5 5 5 6 7 7 8 8 8 7 6 5 4 3
4 4 4 4 5 6 6 6 6 5 4 5 6 6 6 5 4 4 4 4 4 5 5 5 4 4 4 4 4 4 4 4 4 5 6 6 5 4 5 4 4 4 4 5 5 6 7 7 7 7 6 5 4 4 4 5 6 6 6 5 5 4 5 5 5 5 5 5 5 5 5 5 5 4 4 5 5 5 5 5 5 4 4 4 5 5 5 5 5 5 5 5 6 7 8 8 8 8 7 5 3 2 1
Height
5880 5879 5879 5879 5879 5879 5879 5879 5879 5879 5879 5879 5879 5879 5879 5879 5878 5878 5878 5878 5878 5878 5878 5877 5877 5877 5877 5877 5877 5877 5877 5877 5877 5877 5877 5877 5877 5877 5877 5878 5878 5878 5878 5878 5878 5878 5878 5878 5878 5878 5877 5877 5877 5877 5877 5877 5877 5877 5877 5877 5877 5877 5877 5876 5876 5876 5876 5876 5875 5875 5875 5875 5874 5874 5874 5874 5873 5873 5873 5873 5872 5872 5872 5871 5871 5871 5870 5870 5869 5869 5868 5868 5867 5867 5867 5866 5865 5865 5864 5864 5863 5863 5863
5878 5878 5878 5878 5878 5878 5878 5878 5878 5878 5878 5878 5878 5878 5878 5878 5878 5877 5877 5877 5877 5877 5876 5876 5876 5876 5876 5876 5876 5876 5876 5876 5876 5876 5876 5876 5876 5876 5876 5876 5876 5876 5876 5876 5877 5877 5876 5876 5876 5876 5876 5876 5876 5876 5876 5876 5876 5876 5876 5876 5875 5875 5875 5875 5875 5874 5874 5874 5874 5874 5874 5873 5873 5873 5873 5873 5872 5872 5872 5871 5871 5871 5870 5870 5869 5869 5869 5868 5868 5868 5867 5867 5866 5866 5865 5865 5864 5863 5863 5863 5862 5862 5861
5878 5877 5877 5877 5877 5877 5877 5877 5877 5877 5877 5877 5877 5877 5877 5877 5876 5876 5876 5876 5876 5876 5876 5875 5875 5875 5875 5875 5875 5875 5875 5875 5875 5875 5874 5874 5875 5875 5875 5875 5875 5875 5875 5875 5875 5875 5875 5875 5875 5875 5875 5875 5875 5875 5875 5874 5874 5874 5874 5874 5874 5874 5874 5873 5873 5873 5873 5873 5873 5873 5872 5872 5872 5872 5871 5871 5871 5870 5870 5870 5869 5869 5868 5868 5868 5868 5867 5867 5867 5867 5866 5865 5865 5864 5864 5863 5863 5862 5862 5861 5861 5860 5860
5876 5876 5876 5876 5876 5876 5876 5876 5876 5876 5876 5876 5876 5876 5876 5876 5875 5875 5875 5875 5875 5875 5875 5874 5874 5874 5874 5874 5874 5874 5874 5874 5874 5873 5873 5873 5873 5873 5873 5873 5873 5873 5873 5873 5874 5874 5874 5874 5874 5874 5874 5873 5873 5873 5873 5873 5873 5873 5873 5873 5873 5872 5872 5872 5872 5872 5872 5871 5871 5871 5871 5871 5870 5870 5870 5869 5869 5869 5869 5869 5868 5867 5867 5867 5867 5866 5865 5866 5865 5865 5864 5864 5863 5863 5863 5863 5862 5861 5861 5860 5859 5859 5858
5875 5875 5875 5875 5875 5875 5875 5875 5875 5875 5875 5875 5875 5875 5875 5874 5874 5874 5874 5874 5874 5874 5874 5873 5873 5873 5873 5873 5873 5873 5873 5873 5873 5873 5873 5873 5873 5873 5873 5873 5872 5872 5872 5872 5872 5872 5872 5872 5872 5872 5872 5872 5872 5872 5872 5872 5872 5871 5871 5871 5871 5871 5871 5871 5870 5870 5870 5870 5870 5869 5869 5869 5869 5868 5868 5868 5868 5868 5867 5868 5867 5865 5865 5865 5865 5864 5864 5864 5864 5863 5863 5863 5862 5861 5863 5862 5861 5860 5860 5859 5859 5858 5858
5874 5874 5874 5874 5874 5874 5874 5874 5874 5874 5874 5874 5874 5874 5873 5873 5873 5873 5873 5873 5873 5873 5873 5873 5872 5872 5872 5872 5872 5872 5872 5872 5872 5872 5872 5871 5871 5871 5871 5871 5871 5871 5871 5871 5871 5871 5871 5871 5871 5871 5871 5871 5871 5871 5870 5870 5870 5870 5870 5870 5869 5869 5869 5869 5869 5869 5868 5868 5868 5868 5868 5867 5867 5867 5867 5866 5866 5866 5866 5866 5865 5864 5864 5863 5863 5863 5863 5863 5862 5862 5862 5863 5862 5861 5861 5859 5858 5858 5859 5859 5859 5858 5856
5873 5873 5873 5873 5873 5873 5873 5873 5873 5873 5873 5873 5873 5873 5873 5872 5872 5872 5872 5872 5872 5872 5872 5871 5871 5871 5871 5871 5871 5871 5871 5871 5870 5870 5870 5870 5870 5870 5870 5870 5870 5870 5870 5870 5870 5869 5869 5869 5869 5869 5869 5869 5869 5869 5869 5869 5869 5869 5868 5868 5868 5868 5868 5868 5868 5867 5867 5867 5867 5867 5866 5866 5866 5865 5865 5865 5865 5864 5864 5864 5864 5863 5863 5862 5862 5861 5861 5861 5860 5860 5860 5860 5861 5861 5859 5858 5857 5857 5857 5857 5856 5855 5855
5872 5872 5872 5872 5872 5872 5872 5872 5872 5871 5871 5871 5871 5871 5871 5871 5871 5871 5871 5871 5871 5870 5870 5870 5870 5870 5870 5870 5870 5870 5869 5869 5869 5869 5869 5869 5869 5869 5869 5869 5869 5869 5869 5868 5868 5868 5868 5868 5868 5868 5868 5868 5868 5868 5868 5867 5867 5867 5867 5867 5867 5867 5866 5866 5866 5866 5866 5865 5865 5865 5865 5865 5864 5864 5864 5863 5863 5863 5863 5862 5862 5862 5861 5861 5860 5860 5859 5859 5859 5858 5858 5858 5858 5858 5858 5856 5855 5855 5855 5855 5854 5854 5853
5871 5871 5871 5871 5870 5870 5870 5870 5870 5870 5870 5870 5870 5870 5870 5870 5870 5870 5870 5870 5870 5869 5869 5869 5869 5869 5869 5869 5868 5868 5868 5868 5868 5868 5868 5868 5868 5868 5868 5868 5868 5868 5868 5868 5867 5867 5867 5867 5867 5867 5866 5866 5866 5866 5866 5866 5866 5866 5866 5866 5865 5865 5865 5865 5865 5864 5864 5864 5864 5863 5863 5863 5863 5863 5862 5862 5862 5861 5861 5860 5860 5860 5859 5859 5859 5858 5858 5858 5857 5857 5856 5856 5856 5856 5855 5855 5854 5854 5853 5853 5853 5852 5852
5869 5869 5869 5869 5869 5869 5869 5869 5869 5869 5869 5869 5869 5869 5869 5869 5869 5869 5868 5868 5868 5868 5868 5868 5868 5868 5868 5868 5868 5868 5867 5867 5867 5867 5867 5867 5867 5867 5867 5867 5867 5866 5866 5866 5866 5866 5866 5866 5866 5865 5865 5865 5865 5865 5864 5864 5864 5864 5864 5864 5864 5864 5863 5863 5863 5863 5863 5863 5862 5862 5862 5862 5861 5861 5861 5861 5860 5860 5859 5859 5858 5858 5858 5858 5857 5857 5856 5856 5855 5855 5855 5854 5854 5854 5854 5853 5853 5852 5852 5852 5851 5851 5850
5868 5868 5868 5868 5868 5868 5868 5868 5868 5868 5868 5868 5868 5868 5868 5868 5868 5868 5868 5868 5867 5867 5867 5867 5867 5867 5867 5867 5866 5866 5866 5866 5866 5866 5866 5866 5865 5865 5865 5865 5865 5865 5865 5865 5865 5865 5865 5864 5864 5864 5864 5864 5863 5863 5863 5863 5863 5863 5863 5863 5862 5862 5862 5862 5862 5861 5861 5861 5861 5860 5860 5860 5860 5860 5859 5859 5859 5858 5858 5857 5857 5857 5856 5856 5856 5855 5855 5854 5854 5853 5853 5853 5853 5852 5852 5852 5851 5851 5850 5850 5850 5849 5848
5867 5867 5867 5867 5867 5867 5867 5867 5867 5867 5867 5867 5867 5867 5867 5867 5867 5866 5866 5866 5866 5866 5866 5866 5866 5866 5865 5865 5865 5865 5865 5865 5865 5865 5865 5864 5864 5864 5864 5864 5864 5864 5863 5863 5863 5863 5863 5863 5863 5863 5863 5862 5862 5862 5862 5862 5861 5861 5861 5861 5861 5860 5860 5860 5860 5860 5859 5859 5859 5859 5858 5858 5858 5858 5858 5858 5857 5857 5856 5856 5855 5855 5855 5855 5854 5854 5853 5853 5852 5852 5851 5851 5851 5850 5850 5850 5849 5849 5849 5848 5848 5848 5847
5866 5866 5866 5866 5866 5866 5865 5865 5865 5865 5865 5865 5865 5865 5865 5865 5865 5865 5865 5865 5865 5865 5865 5865 5864 5864 5864 5864 5864 5864 5864 5864 5864 5863 5863 5863 5863 5863 5863 5863 5863 5863 5862 5862 5862 5862 5862 5862 5862 5861 5861 5861 5861 5861 5860 5860 5860 5860 5860 5859 5859 5859 5859 5858 5858 5858 5858 5858 5858 5857 5857 5857 5857 5856 5856 5856 5855 5855 5855 5855 5854 5853 5853 5853 5853 5852 5852 5851 5851 5850 5850 5849 5849 5848 5848 5848 5848 5848 5847 5847 5846 5846 5845
5864 5864 5864 5864 5864 5864 5864 5864 5864 5864 5864 5864 5864 5864 5864 5864 5864 5864 5864 5864 5863 5863 5863 5863 5863 5863 5863 5863 5863 5863 5863 5863 5863 5862 5862 5862 5862 5862 5862 5862 5861 5861 5861 5861 5861 5860 5860 5860 5860 5860 5860 5859 5859 5859 5859 5859 5858 5858 5858 5858 5858 5857 5857 5857 5857 5857 5856 5856 5856 5856 5855 5855 5855 5855 5854 5854 5854 5853 5853 5853 5852 5851 5851 5851 5851 5851 5850 5850 5849 5849 5848 5848 5847 5847 5847 5846 5846 5846 5845 5845 5845 5844 5844
5863 5863 5863 5863 5863 5863 5863 5863 5862 5862 5862 5862 5862 5862 5862 5862 5862 5862 5862 5862 5862 5862 5862 5862 5862 5862 5862 5862 5862 5861 5861 5861 5861 5861 5861 5861 5861 5860 5860 5860 5860 5860 5860 5859 5859 5859 5859 5859 5858 5858 5858 5858 5858 5858 5858 5857 5857 5857 5857 5856 5856 5856 5856 5855 5855 5855 5855 5855 5854 5854 5853 5853 5853 5853 5853 5852 5852 5852 5852 5852 5851 5849 5849 5849 5849 5849 5848 5848 5848 5847 5847 5846 5846 5845 5845 5845 5844 5844 5843 5843 5843 5843 5842
5861 5861 5861 5861 5861 5861 5861 5861 5861 5861 5861 5861 5861 5861 5861 5861 5861 5861 5861 5861 5861 5861 5861 5860 5860 5860 5860 5860 5860 5860 5860 5860 5860 5860 5859 5859 5859 5859 5859 5859 5858 5858 5858 5858 5858 5858 5858 5857 5857 5857 5857 5856 5856 5856 5856 5856 5855 5855 5855 5855 5854 5854 5854 5854 5853 5853 5853 5853 5853 5852 5852 5852 5851 5851 5851 5850 5850 5850 5850 5850 5849 5848 5847 5847 5847 5847 5847 5846 5846 5845 5845 5845 5844 5844 5843 5843 5843 5842 5842 5842 5841 5841 5840
5860 5860 5860 5860 5859 5859 5859 5859 5859 5859 5859 5859 5859 5859 5859 5859 5859 5859 5859 5859 5859 5859 5859 5859 5859 5859 5859 5858 5858 5858 5858 5858 5858 5858 5858 5858 5858 5858 5858 5857 5857 5857 5857 5857 5856 5856 5856 5856 5856 5855 5855 5855 5855 5854 5854 5854 5854 5854 5853 5853 5853 5853 5853 5852 5852 5852 5852 5852 5851 5851 5850 5850 5850 5849 5849 5849 5848 5848 5848 5848 5847 5847 5846 5845 5845 5845 5845 5845 5844 5844 5843 5843 5843 5842 5842 5841 5841 5840 5840 5840 5839 5839 5839
5858 5858 5858 5858 5858 5858 5858 5858 5858 5858 5858 5858 5858 5858 5858 5858 5858 5858 5858 5858 5858 5858 5858 5857 5857 5857 5857 5857 5857 5857 5857 5857 5857 5857 5857 5857 5856 5856 5856 5856 5856 5855 5855 5855 5855 5855 5854 5854 5854 5854 5853 5853 5853 5853 5853 5853 5852 5852 5852 5852 5851 5851 5851 5850 5850 5850 5850 5850 5849 5849 5849 5848 5848 5848 5848 5847 5847 5846 5846 5846 5845 5845 5844 5844 5843 5843 5843 5843 5842 5842 5842 5841 5841 5840 5840 5839 5839 5839 5838 5838 5838 5837 5837
5857 5857 5857 5857 5857 5857 5856 5856 5856 5856 5856 5856 5856 5856 5856 5856 5856 5856 5856 5856 5856 5856 5856 5856 5856 5856 5856 5856 5856 5855 5855 5855 5855 5855 5855 5855 5855 5855 5854 5854 5854 5854 5854 5853 5853 5853 5853 5853 5852 5852 5852 5852 5851 5851 5851 5851 5851 5850 5850 5850 5850 5849 5849 5849 5848 5848 5848 5848 5848 5848 5847 5847 5847 5846 5846 5845 5845 5844 5844 5844 5843 5843 5843 5843 5842 5842 5841 5841 5841 5840 5840 5839 5839 5838 5838 5838 5838 5837 5837 5836 5836 5836 5835
5856 5856 5855 5855 5855 5855 5855 5855 5855 5855 5854 5854 5854 5855 5855 5855 5855 5855 5855 5854 5854 5854 5854 5854 5854 5854 5854 5854 5854 5854 5854 5854 5854 5854 5853 5853 5853 5853 5853 5853 5853 5853 5852 5852 5852 5851 5851 5851 5851 5850 5850 5850 5850 5849 5849 5849 5849 5848 5848 5848 5848 5848 5847 5847 5847 5847 5846 5846 5846 5846 5845 5845 5844 5844 5844 5843 5843 5843 5842 5842 5842 5841 5841 5841 5840 5840 5839 5839 5839 5838 5838 5838 5837 5837 5836 5836 5836 5835 5835 5835 5834 5834 5833
5854 5854 5854 5854 5854 5853 5853 5853 5853 5853 5853 5853 5853 5853 5853 5853 5853 5853 5853 5853 5853 5853 5853 5853 5853 5853 5853 5853 5853 5853 5853 5852 5852 5852 5852 5852 5852 5852 5851 5851 5851 5851 5851 5850 5850 5850 5850 5849 5849 5849 5849 5848 5848 5848 5848 5847 5847 5847 5847 5846 5846 5846 5846 5845 5845 5845 5844 5844 5844 5844 5843 5843 5843 5842 5842 5842 5841 5841 5840 5840 5840 5839 5839 5838 5838 5838 5837 5837 5837 5836 5836 5836 5835 5835 5834 5834 5834 5833 5833 5833 5833 5832 5832
5853 5853 5853 5853 5852 5852 5852 5852 5852 5852 5851 5851 5851 5852 5852 5852 5852 5852 5852 5851 5851 5851 5851 5851 5851 5851 5851 5851 5851 5851 5851 5851 5851 5851 5850 5850 5850 5850 5850 5849 5849 5849 5849 5849 5848 5848 5848 5848 5848 5847 5847 5847 5847 5846 5846 5846 5845 5845 5845 5845 5844 5844 5844 5843 5843 5843 5843 5842 5842 5842 5842 5841 5841 5841 5840 5840 5839 5839 5839 5838 5838 5837 5837 5836 5836 5835 5835 5835 5835 5834 5834 5833 5833 5833 5833 5832 5832 5832 5831 5831 5831 5830 5830
5851 5851 5851 5851 5851 5851 5851 5850 5850 5850 5850 5850 5850 5850 5850 5850 5850 5850 5850 5850 5850 5849 5849 5849 5849 5849 5849 5849 5849 5849 5849 5849 5849 5849 5849 5849 5848 5848 5848 5848 5848 5848 5847 5847 5847 5847 5847 5846 5846 5846 5845 5845 5845 5845 5844 5844 5844 5843 5843 5843 5843 5842 5842 5842 5842 5841 5841 5841 5840 5840 5840 5839 5839 5839 5838 5838 5838 5837 5837 5836 5836 5835 5835 5834 5834 5833 5833 5833 5832 5832 5832 5831 5831 5831 5830 5830 5830 5829 5829 5829 5829 5828 5828
5850 5850 5850 5850 5849 5849 5849 5849 5849 5848 5848 5848 5848 5848 5848 5848 5848 5848 5848 5848 5848 5848 5848 5848 5848 5848 5848 5848 5848 5848 5848 5848 5848 5848 5848 5847 5847 5847 5847 5846 5846 5846 5846 5846 5845 5845 5845 5845 5845 5844 5844 5844 5843 5843 5843 5843 5842 5842 5842 5842 5841 5841 5841 5840 5840 5840 5839 5839 5839 5838 5838 5838 5838 5837 5837 5836 5836 5835 5835 5834 5834 5833 5833 5833 5832 5831 5831 5830 5830 5830 5829 5829 5829 5828 5828 5828 5828 5828 5827 5827 5827 5827 5826
5848 5848 5848 5848 5848 5848 5848 5848 5847 5847 5847 5847 5847 5847 5847 5847 5847 5847 5846 5846 5846 5846 5846 5846 5846 5846 5846 5846 5846 5846 5846 5846 5846 5846 5846 5846 5845 5845 5845 5845 5845 5844 5844 5844 5844 5844 5844 5843 5843 5843 5843 5842 5842 5842 5842 5841 5841 5841 5840 5840 5840 5839 5839 5839 5838 5838 5838 5838 5837 5837 5836 5836 5836 5835 5835 5834 5834 5833 5833 5833 5832 5831 5831 5830 5830 5829 5829 5828 5828 5828 5827 5827 5827 5826 5826 5826 5826 5825 5825 5825 5825 5824 5824
5847 5847 5847 5847 5846 5846 5846 5846 5846 5845 5845 5845 5845 5845 5845 5845 5845 5845 5845 5844 5844 5844 5844 5844 5844 5844 5844 5844 5844 5844 5845 5845 5845 5845 5844 5844 5844 5844 5843 5843 5843 5843 5843 5843 5843 5843 5842 5842 5842 5842 5841 5841 5841 5840 5840 5840 5839 5839 5839 5838 5838 5838 5837 5837 5837 5836 5836 5836 5835 5835 5835 5834 5834 5833 5833 5833 5832 5832 5831 5830 5830 5829 5829 5828 5828 5827 5827 5826 5826 5825 5825 5824 5824 5824 5823 5823 5823 5823 5823 5823 5823 5823 5822
5845 5845 5845 5845 5845 5845 5844 5844 5844 5844 5844 5844 5844 5844 5844 5844 5844 5843 5843 5843 5843 5843 5842 5842 5842 5842 5842 5843 5843 5843 5843 5843 5843 5843 5843 5843 5843 5842 5842 5842 5842 5841 5841 5841 5841 5841 5841 5840 5840 5840 5840 5839 5839 5838 5838 5838 5838 5837 5837 5837 5836 5836 5836 5835 5835 5834 5834 5834 5833 5833 5833 5832 5832 5831 5831 5830 5830 5829 5829 5828 5828 5827 5827 5826 5826 5825 5824 5824 5823 5823 5823 5822 5822 5821 5821 5821 5821 5821 5821 5820 5820 5820 5820
5843 5843 5843 5843 5843 5843 5843 5843 5843 5842 5842 5842 5842 5842 5843 5843 5842 5842 5842 5841 5841 5841 5841 5841 5841 5841 5841 5841 5841 5841 5841 5841 5841 5841 5841 5841 5841 5840 5840 5840 5840 5840 5839 5839 5839 5839 5839 5839 5838 5838 5838 5838 5837 5837 5837 5836 5836 5835 5835 5835 5834 5834 5834 5833 5833 5833 5832 5832 5832 5831 5831 5830 5830 5829 5829 5828 5828 5827 5827 5826 5826 5825 5824 5824 5823 5823 5823 5822 5821 5821 5820 5820 5819 5819 5819 5818 5818 5818 5818 5818 5818 5818 5818
5842 5842 5842 5842 5842 5841 5841 5841 5841 5841 5840 5841 5841 5841 5841 5841 5841 5840 5840 5840 5839 5839 5839 5839 5839 5839 5839 5839 5839 5839 5839 5839 5839 5839 5839 5839 5839 5839 5838 5838 5838 5838 5838 5838 5838 5837 5837 5837 5837 5836 5836 5836 5835 5835 5835 5834 5834 5833 5833 5833 5833 5832 5832 5832 5831 5831 5830 5830 5829 5829 5829 5828 5828 5827 5827 5826 5826 5825 5825 5824 5823 5823 5822 5822 5821 5821 5820 5820 5819 5819 5818 5818 5817 5817 5817 5816 5816 5816 5816 5816 5816 5816 5816
5841 5841 5840 5840 5840 5840 5840 5839 5839 5839 5839 5839 5839 5839 5839 5839 5839 5839 5838 5838 5838 5838 5838 5838 5838 5838 5837 5837 5837 5837 5837 5838 5838 5838 5838 5837 5837 5837 5837 5836 5836 5836 5836 5836 5836 5835 5835 5835 5835 5834 5834 5834 5833 5833 5833 5833 5832 5832 5831 5831 5831 5830 5830 5830 5829 5829 5828 5828 5828 5827 5827 5826 5826 5825 5825 5824 5823 5823 5823 5822 5821 5821 5820 5820 5819 5819 5818 5818 5817 5817 5816 5816 5815 5815 5814 5814 5814 5813 5813 5813 5813 5813 5813
5839 5839 5839 5839 5838 5838 5838 5838 5838 5838 5838 5838 5838 5838 5838 5838 5838 5838 5837 5837 5837 5836 5836 5836 5836 5836 5836 5836 5836 5836 5836 5836 5836 5836 5836 5835 5835 5835 5835 5835 5834 5834 5834 5834 5834 5833 5833 5833 5833 5833 5833 5832 5832 5831 5831 5831 5830 5830 5829 5829 5829 5828 5828 5828 5828 5827 5827 5826 5826 5825 5825 5824 5823 5823 5823 5822 5821 5821 5820 5820 5819 5819 5818 5818 5817 5817 5816 5816 5815 5815 5814 5814 5813 5813 5813 5812 5812 5811 5811 5811 5811 5811 5811
5838 5838 5838 5838 5837 5837 5837 5836 5836 5836 5836 5836 5836 5836 5836 5836 5836 5836 5835 5835 5835 5835 5835 5835 5834 5834 5834 5834 5834 5834 5834 5834 5834 5834 5834 5834 5833 5833 5833 5833 5833 5833 5833 5832 5832 5832 5832 5831 5831 5831 5831 5830 5830 5829 5829 5829 5828 5828 5828 5827 5827 5827 5826 5826 5825 5825 5824 5824 5823 5823 5823 5822 5822 5821 5820 5820 5819 5819 5818 5818 5817 5817 5816 5815 5815 5814 5814 5814 5813 5813 5813 5812 5811 5811 5810 5810 5810 5809 5809 5809 5809 5808 5808
5837 5837 5836 5836 5836 5835 5835 5835 5834 5834 5834 5834 5834 5835 5835 5835 5834 5834 5834 5833 5833 5833 5833 5833 5833 5833 5833 5832 5832 5832 5832 5832 5832 5832 5832 5832 5832 5832 5832 5831 5831 5831 5831 5831 5830 5830 5830 5829 5829 5829 5829 5828 5828 5828 5827 5827 5827 5826 5826 5825 5825 5825 5824 5824 5823 5823 5823 5822 5822 5821 5821 5820 5819 5819 5818 5818 5817 5817 5816 5816 5815 5814 5814 5813 5813 5813 5812 5812 5811 5811 5810 5810 5809 5809 5808 5808 5808 5807 5807 5807 5806 5806 5806
5835 5835 5835 5835 5834 5834 5834 5833 5833 5833 5833 5833 5833 5833 5833 5833 5833 5833 5832 5832 5831 5831 5831 5831 5831 5831 5831 5831 5830 5830 5830 5830 5830 5830 5830 5830 5830 5830 5830 5829 5829 5829 5829 5829 5828 5828 5828 5828 5827 5827 5827 5827 5826 5826 5825 5825 5825 5824 5824 5823 5823 5823 5822 5822 5822 5821 5821 5820 5820 5819 5819 5818 5818 5817 5817 5816 5815 5815 5814 5813 5813 5812 5812 5811 5811 5810 5810 5809 5809 5809 5808 5808 5808 5807 5806 5806 5805 5805 5805 5804 5804 5804 5804
5833 5833 5833 5833 5833 5833 5832 5832 5831 5831 5831 5831 5831 5832 5832 5832 5832 5831 5830 5830 5830 5829 5829 5829 5829 5829 5829 5829 5829 5829 5828 5828 5828 5828 5828 5828 5828 5828 5828 5828 5828 5827 5827 5827 5827 5826 5826 5826 5825 5825 5825 5825 5824 5824 5824 5823 5823 5823 5822 5822 5821 5821 5820 5820 5820 5819 5819 5818 5818 5817 5817 5816 5816 5815 5814 5814 5813 5813 5812 5812 5811 5810 5810 5809 5808 5808 5808 5807 5807 5807 5806 5806 5805 5805 5804 5804 5803 5803 5802 5802 5802 5802 5801
5832 5832 5832 5832 5832 5831 5831 5830 5830 5829 5829 5829 5829 5830 5830 5830 5830 5829 5829 5828 5828 5828 5828 5828 5828 5827 5827 5827 5827 5827 5827 5827 5827 5827 5827 5827 5827 5826 5826 5826 5826 5825 5825 5825 5825 5824 5824 5824 5823 5823 5823 5823 5823 5822 5822 5822 5821 5821 5820 5820 5819 5819 5819 5818 5818 5817 5817 5816 5816 5815 5815 5814 5814 5813 5813 5812 5811 5811 5810 5809 5809 5808 5808 5807 5807 5806 5806 5805 5805 5804 5804 5804 5803 5803 5802 5802 5801 5801 5800 5800 5799 5799 5799
5830 5830 5830 5830 5830 5830 5829 5828 5828 5828 5827 5827 5828 5828 5828 5828 5828 5828 5827 5827 5826 5826 5826 5826 5826 5825 5825 5825 5825 5825 5825 5825 5825 5825 5825 5825 5824 5824 5824 5824 5824 5823 5823 5823 5823 5823 5822 5822 5822 5821 5821 5821 5821 5821 5820 5820 5819 5819 5818 5818 5818 5817 5817 5817 5816 5816 5815 5814 5814 5813 5813 5812 5812 5811 5810 5810 5809 5808 5808 5807 5807 5806 5805 5805 5804 5804 5803 5803 5803 5802 5802 5802 5801 5801 5800 5800 5799 5798 5798 5798 5797 5797 5796
5828 5828 5828 5828 5828 5828 5828 5827 5826 5826 5826 5825 5826 5826 5827 5827 5827 5826 5826 5825 5824 5824 5824 5824 5824 5824 5824 5823 5823 5823 5823 5823 5823 5823 5823 5823 5823 5823 5823 5822 5822 5822 5821 5821 5821 5821 5820 5820 5820 5819 5819 5819 5819 5819 5818 5818 5818 5817 5817 5816 5816 5816 5815 5815 5814 5814 5813 5813 5812 5811 5811 5810 5809 5809 5808 5808 5807 5806 5806 5805 5804 5804 5803 5803 5802 5802 5801 5801 5800 5800 5799 5799 5799 5798 5798 5798 5797 5797 5796 5795 5795 5794 5794
5826 5826 5827 5827 5826 5826 5826 5825 5825 5824 5824 5824 5824 5824 5825 5825 5825 5825 5824 5823 5823 5823 5822 5822 5822 5822 5822 5822 5822 5821 5821 5821 5821 5821 5821 5821 5821 5820 5820 5820 5820 5820 5819 5819 5819 5819 5818 5818 5818 5818 5818 5818 5817 5817 5817 5816 5816 5815 5815 5815 5814 5814 5813 5813 5812 5812 5811 5811 5810 5809 5809 5808 5808 5807 5806 5805 5805 5804 5803 5803 5802 5802 5801 5800 5800 5799 5799 5798 5798 5798 5797 5797 5796 5796 5796 5795 5795 5794 5794 5793 5793 5792 5792
5824 5824 5824 5825 5824 5824 5824 5823 5823 5823 5822 5822 5822 5822 5823 5823 5823 5823 5822 5822 5821 5821 5820 5820 5820 5820 5820 5820 5820 5819 5819 5819 5819 5819 5819 5819 5818 5818 5818 5818 5818 5818 5818 5817 5817 5817 5817 5816 5816 5816 5816 5815 5815 5815 5815 5814 5814 5814 5813 5813 5812 5812 5811 5811 5810 5810 5809 5808 5808 5807 5807 5806 5805 5804 5804 5803 5803 5802 5801 5800 5800 5799 5798 5798 5798 5797 5797 5796 5795 5795 5795 5794 5794 5793 5793 5793 5793 5792 5792 5791 5791 5790 5790
5822 5822 5823 5823 5822 5822 5822 5821 5821 5821 5820 5820 5820 5820 5821 5821 5821 5821 5820 5820 5819 5819 5818 5818 5818 5818 5818 5818 5818 5818 5818 5817 5817 5817 5817 5817 5817 5816 5816 5816 5816 5816 5815 5815 5815 5815 5814 5814 5814 5814 5814 5813 5813 5813 5813 5813 5812 5812 5811 5811 5810 5810 5809 5809 5808 5808 5807 5806 5806 5805 5804 5803 5803 5802 5802 5801 5800 5799 5799 5798 5798 5797 5796 5796 5795 5795 5794 5793 5793 5793 5792 5792 5791 5791 5791 5790 5790 5789 5789 5789 5788 5788 5787
5820 5820 5820 5820 5820 5820 5820 5819 5819 5819 5819 5818 5818 5818 5818 5819 5819 5819 5818 5818 5818 5817 5817 5816 5816 5816 5816 5816 5816 5816 5816 5815 5815 5815 5815 5815 5815 5814 5814 5814 5814 5814 5813 5813 5813 5813 5813 5812 5812 5812 5812 5811 5811 5811 5811 5810 5810 5810 5809 5809 5808 5808 5807 5807 5806 5805 5805 5804 5803 5803 5802 5801 5801 5800 5799 5799 5798 5797 5797 5796 5795 5795 5794 5793 5793 5792 5792 5791 5791 5790 5789 5789 5788 5788 5788 5788 5787 5787 5786 5786 5786 5785 5785
5818 5818 5818 5818 5818 5818 5818 5818 5817 5817 5817 5817 5817 5817 5817 5817 5817 5817 5817 5816 5816 5815 5815 5814 5814 5814 5814 5814 5814 5814 5814 5813 5813 5813 5813 5813 5813 5813 5812 5812 5812 5812 5812 5811 5811 5811 5811 5810 5810 5810 5809 5809 5809 5809 5808 5808 5808 5808 5807 5807 5806 5806 5805 5804 5804 5803 5803 5802 5801 5800 5800 5799 5798 5798 5797 5796 5796 5795 5794 5794 5793 5793 5792 5791 5791 5790 5789 5789 5788 5788 5787 5787 5786 5786 5785 5785 5784 5784 5783 5783 5783 5783 5782
5816 5816 5816 5816 5816 5816 5815 5815 5815 5815 5815 5815 5815 5815 5815 5815 5815 5815 5814 5814 5813 5813 5813 5813 5812 5812 5812 5812 5812 5812 5812 5812 5812 5812 5811 5811 5811 5811 5810 5810 5810 5810 5810 5809 5809 5809 5808 5808 5808 5808 5808 5807 5807 5807 5806 5806 5806 5805 5805 5804 5804 5803 5803 5803 5802 5801 5800 5800 5799 5798 5798 5797 5796 5795 5795 5794 5793 5793 5792 5792 5791 5791 5790 5789 5788 5788 5787 5787 5786 5785 5785 5784 5783 5783 5783 5782 5782 5781 5781 5780 5780 5780 5779
5813 5813 5813 5813 5813 5813 5813 5813 5813 5813 5813 5813 5813 5813 5813 5813 5813 5813 5812 5812 5811 5811 5811 5810 5810 5810 5810 5810 5810 5810 5810 5810 5809 5809 5809 5809 5809 5809 5808 5808 5808 5808 5808 5808 5807 5807 5807 5806 5806 5806 5805 5805 5805 5804 5804 5804 5803 5803 5803 5802 5802 5801 5801 5800 5799 5799 5798 5798 5797 5796 5795 5794 5794 5793 5793 5792 5791 5791 5790 5789 5789 5788 5788 5787 5787 5786 5785 5784 5784 5783 5783 5782 5781 5781 5780 5780 5779 5778 5778 5778 5777 5777 5776
5811 5811 5811 5811 5811 5811 5811 5811 5811 5811 5811 5811 5811 5811 5810 5810 5810 5810 5810 5810 5809 5809 5809 5808 5808 5808 5808 5808 5808 5807 5807 5807 5807 5807 5807 5807 5807 5807 5807 5806 5806 5806 5806 5806 5805 5805 5805 5804 5804 5804 5803 5803 5803 5802 5802 5802 5801 5801 5800 5800 5799 5799 5798 5798 5797 5797 5796 5795 5794 5794 5793 5792 5792 5791 5790 5790 5789 5788 5788 5787 5787 5786 5785 5785 5784 5783 5783 5782 5782 5781 5780 5780 5779 5778 5778 5777 5777 5776 5776 5775 5774 5774 5773
5809 5809 5809 5809 5809 5808 5808 5808 5808 5808 5808 5808 5808 5808 5808 5808 5808 5808 5808 5808 5807 5807 5807 5806 5806 5806 5806 5806 5805 5805 5805 5805 5805 5805 5805 5805 5805 5804 5804 5804 5804 5804 5804 5803 5803 5803 5803 5802 5802 5802 5801 5801 5801 5800 5800 5799 5799 5798 5798 5798 5797 5797 5796 5795 5795 5794 5793 5793 5792 5791 5791 5790 5789 5788 5788 5787 5787 5786 5785 5785 5784 5784 5783 5783 5782 5781 5780 5780 5779 5778 5778 5777 5777 5776 5775 5775 5774 5774 5773 5773 5772 5771 5771
5807 5807 5807 5807 5806 5806 5806 5806 5806 5806 5806 5806 5806 5806 5806 5805 5805 5805 5805 5805 5805 5805 5805 5804 5804 5804 5803 5803 5803 5803 5803 5803 5803 5803 5803 5803 5803 5802 5802 5802 5802 5802 5802 5802 5801 5801 5801 5800 5800 5800 5799 5799 5798 5798 5798 5798 5797 5796 5796 5795 5795 5794 5793 5793 5792 5792 5791 5790 5790 5789 5788 5788 5787 5786 5785 5785 5784 5783 5783 5782 5782 5781 5780 5780 5779 5778 5778 5777 5776 5776 5775 5774 5774 5773 5773 5772 5772 5771 5771 5770 5769 5769 5768
5804 5804 5804 5804 5804 5804 5804 5803 5803 5803 5803 5803 5803 5803 5803 5803 5803 5803 5803 5803 5803 5803 5802 5802 5802 5801 5801 5801 5801 5801 5801 5800 5800 5800 5800 5800 5800 5800 5800 5800 5800 5800 5800 5799 5799 5799 5798 5798 5798 5798 5797 5797 5797 5796 5796 5795 5795 5794 5794 5793 5793 5792 5791 5791 5790 5789 5789 5788 5787 5787 5786 5785 5784 5783 5783 5782 5781 5781 5780 5780 5779 5778 5778 5777 5777 5776 5775 5774 5774 5773 5772 5772 5771 5771 5770 5769 5769 5768 5768 5767 5767 5766 5765
5802 5802 5802 5802 5802 5801 5801 5801 5801 5801 5801 5801 5801 5800 5800 5800 5800 5800 5801 5801 5801 5800 5800 5799 5799 5799 5799 5799 5799 5799 5798 5798 5798 5798 5798 5798 5798 5797 5797 5798 5798 5798 5798 5797 5797 5796 5796 5796 5796 5795 5795 5794 5794 5794 5794 5793 5793 5792 5792 5791 5790 5790 5789 5788 5788 5787 5786 5786 5785 5784 5783 5783 5782 5781 5780 5779 5779 5778 5777 5777 5776 5776 5775 5774 5774 5773 5772 5772 5771 5770 5769 5769 5768 5768 5767 5767 5766 5765 5765 5764 5764 5763 5763
5799 5799 5799 5799 5799 5799 5798 5798 5798 5798 5798 5798 5798 5798 5798 5798 5798 5798 5798 5798 5798 5798 5798 5797 5797 5797 5796 5796 5796 5796 5796 5796 5796 5796 5795 5795 5795 5795 5795 5795 5795 5795 5795 5795 5795 5794 5794 5794 5793 5793 5793 5792 5792 5792 5791 5791 5790 5789 5789 5788 5788 5788 5787 5786 5786 5785 5784 5783 5783 5782 5781 5780 5779 5778 5778 5777 5776 5775 5775 5774 5773 5773 5772 5772 5771 5770 5769 5769 5768 5767 5767 5766 5765 5764 5764 5763 5763 5762 5762 5761 5761 5760 5759
5796 5796 5796 5796 5796 5796 5796 5795 5795 5795 5795 5795 5795 5795 5795 5795 5795 5795 5796 5796 5796 5795 5795 5795 5794 5794 5794 5794 5794 5794 5794 5793 5793 5793 5793 5792 5792 5793 5793 5792 5793 5793 5793 5792 5792 5792 5792 5791 5791 5790 5790 5790 5789 5789 5789 5788 5788 5787 5787 5786 5786 5785 5784 5784 5783 5783 5782 5781 5780 5779 5778 5778 5777 5776 5775 5774 5773 5773 5772 5771 5771 5770 5769 5769 5768 5767 5767 5766 5765 5764 5763 5763 5762 5762 5761 5760 5759 5759 5758 5758 5758 5757 5756
5793 5793 5793 5793 5793 5793 5793 5793 5793 5793 5793 5792 5792 5792 5792 5793 5793 5793 5793 5793 5793 5793 5792 5792 5792 5792 5792 5792 5792 5791 5791 5791 5790 5790 5790 5790 5789 5789 5790 5790 5790 5790 5790 5790 5790 5789 5790 5789 5788 5788 5788 5787 5787 5786 5786 5785 5785 5784 5784 5783 5783 5782 5782 5781 5781 5780 5779 5778 5778 5777 5776 5775 5774 5773 5773 5772 5771 5770 5769 5768 5768 5767 5767 5766 5765 5764 5764 5763 5762 5761 5761 5760 5759 5758 5758 5757 5756 5756 5755 5755 5754 5753 5753
5789 5790 5790 5790 5790 5790 5790 5790 5790 5790 5790 5789 5789 5789 5790 5790 5790 5790 5790 5790 5790 5790 5789 5789 5789 5789 5789 5789 5789 5789 5788 5788 5788 5787 5787 5787 5787 5787 5787 5787 5788 5787 5787 5788 5787 5787 5787 5786 5785 5785 5785 5785 5784 5783 5783 5783 5782 5782 5781 5781 5780 5779 5779 5778 5778 5777 5777 5776 5775 5774 5773 5773 5772 5771 5770 5769 5768 5767 5767 5766 5765 5764 5764 5763 5762 5762 5761 5760 5759 5758 5758 5757 5756 5755 5755 5754 5753 5753 5752 5751 5751 5750 5749
5786 5786 5787 5787 5788 5788 5788 5788 5787 5787 5787 5787 5787 5787 5787 5787 5787 5787 5787 5787 5787 5787 5787 5786 5786 5786 5786 5786 5786 5786 5786 5785 5785 5785 5784 5784 5784 5784 5783 5784 5784 5785 5784 5785 5785 5784 5784 5783 5783 5782 5783 5782 5782 5781 5780 5780 5779 5779 5778 5778 5777 5777 5776 5776 5775 5774 5774 5773 5772 5772 5771 5770 5769 5768 5767 5766 5766 5765 5764 5763 5762 5762 5761 5760 5759 5759 5758 5757 5756 5756 5755 5754 5753 5753 5752 5751 5750 5750 5749 5748 5748 5747 5746
5783 5783 5784 5784 5784 5785 5785 5785 5784 5784 5784 5784 5784 5784 5784 5784 5784 5784 5784 5784 5784 5784 5784 5784 5783 5783 5783 5783 5783 5783 5783 5783 5782 5782 5782 5781 5781 5781 5781 5781 5782 5782 5782 5782 5782 5782 5782 5781 5780 5780 5780 5780 5779 5778 5778 5778 5777 5776 5776 5775 5774 5774 5773 5773 5772 5772 5771 5770 5770 5769 5768 5767 5766 5765 5764 5764 5763 5762 5761 5760 5759 5759 5758 5757 5757 5756 5755 5754 5753 5753 5752 5751 5750 5749 5749 5748 5747 5747 5746 5745 5744 5743 5743
5780 5780 5781 5781 5782 5782 5782 5782 5782 5782 5782 5781 5781 5781 5781 5781 5781 5781 5781 5781 5781 5781 5781 5781 5781 5780 5780 5780 5780 5779 5779 5779 5779 5779 5779 5778 5778 5778 5779 5779 5778 5778 5779 5779 5779 5779 5779 5778 5778 5778 5777 5777 5777 5776 5775 5774 5774 5773 5773 5772 5772 5771 5770 5770 5769 5769 5768 5768 5767 5766 5765 5764 5763 5763 5762 5761 5760 5759 5758 5757 5757 5756 5755 5754 5753 5753 5752 5751 5750 5750 5749 5748 5747 5747 5746 5745 5744 5743 5743 5742 5741 5741 5740
5777 5777 5778 5778 5778 5778 5779 5779 5779 5779 5778 5778 5778 5778 5778 5778 5778 5778 5778 5778 5778 5778 5778 5778 5778 5778 5777 5777 5777 5776 5776 5776 5776 5776 5776 5776 5776 5776 5776 5776 5776 5776 5776 5776 5776 5776 5776 5776 5776 5775 5775 5774 5774 5773 5773 5772 5771 5771 5770 5769 5769 5768 5768 5767 5767 5766 5766 5765 5764 5763 5763 5762 5761 5760 5759 5758 5757 5756 5755 5754 5753 5753 5752 5751 5750 5750 5749 5748 5748 5747 5746 5745 5744 5743 5743 5742 5741 5740 5740 5739 5738 5738 5737
5773 5774 5774 5774 5775 5775 5775 5776 5776 5776 5776 5776 5775 5775 5775 5775 5775 5775 5775 5775 5775 5775 5775 5775 5775 5774 5774 5774 5773 5773 5773 5773 5773 5773 5773 5773 5773 5774 5773 5773 5773 5773 5773 5773 5773 5773 5773 5773 5773 5773 5772 5771 5771 5770 5770 5769 5769 5768 5767 5767 5766 5765 5765 5764 5764 5763 5763 5762 5762 5761 5760 5759 5758 5757 5756 5755 5754 5753 5752 5751 5751 5750 5749 5748 5748 5747 5746 5745 5744 5743 5743 5742 5741 5740 5739 5739 5738 5737 5737 5736 5735 5734 5733
5769 5770 5770 5771 5771 5772 5772 5772 5773 5773 5773 5773 5772 5772 5771 5771 5771 5772 5772 5771 5772 5772 5772 5772 5772 5771 5771 5770 5770 5770 5770 5770 5770 5770 5770 5771 5771 5771 5771 5771 5770 5771 5771 5771 5771 5771 5770 5770 5769 5769 5769 5768 5768 5767 5767 5767 5766 5765 5764 5764 5763 5763 5762 5761 5761 5760 5760 5759 5758 5758 5757 5756 5755 5754 5753 5752 5751 5750 5749 5748 5748 5747 5746 5745 5744 5743 5743 5742 5741 5740 5739 5739 5738 5737 5736 5735 5735 5734 5733 5733 5732 5731 5730
5765 5766 5766 5767 5768 5768 5768 5768 5769 5769 5769 5770 5769 5769 5768 5768 5768 5768 5768 5768 5768 5768 5768 5768 5768 5768 5768 5767 5767 5767 5767 5767 5767 5767 5767 5768 5768 5768 5769 5768 5768 5768 5768 5768 5768 5768 5768 5767 5767 5766 5765 5765 5765 5764 5764 5763 5763 5763 5762 5761 5760 5759 5759 5758 5758 5757 5757 5756 5755 5755 5754 5753 5752 5751 5750 5749 5748 5747 5746 5745 5744 5743 5743 5742 5741 5740 5739 5739 5738 5737 5736 5736 5735 5734 5733 5732 5731 5731 5730 5729 5728 5727 5727